STARLINK-38020, 69713

Orbit data source: Space-Track

STARLINK-38020, 69713 is a payload satellite owned by SpaceX/Seattle (US) in SSO that was launched on Sun, 28 Jun 2026 UTC via an FALCON 9 launch vehicle from the Air Force Western Test Range (AFWTR). Payload-class satellites include a variety of spacecraft equipped with specific instruments for various scientific and technological missions. These include communications satellites like Starlink; space stations such as the ISS; scientific satellites like the Hubble; Earth observation satellites from companies like Planet Labs, Umbra, and HawkEye 360; GPS; miniature CubeSats for education and research; and military/defense satellites.

Loading next visibility...
Identifier
69713, 2026-147K
Orbit
SSO
Country
Flag of USUS
Related business
Manufacturer
SpaceX/Seattle
Mission
Operational spacecraft
Bus & Motor
STARLINK V2MO, Unknown motor
Mass
575 kg wet, ~530 kg dry
Launch date (UTC)
2026-06-28 (2 weeks ago)
Launch vehicle
FALCON 9
Launch site
Air Force Western Test Range (AFWTR)
Object type
Payload
Rocket body
Debris
Shape & HBR
Unknown shape, 17.7 m
Radar Cross Section
Large (>1 m²)

Expand to show TLE details & history
Last TLE update: 19 hours ago

TLE from 19 hours ago
0 STARLINK-38020
1 69713U 26147K   26192.61750944  .00230058  00000-0  11659-2 0  9994
2 69713  97.2834 228.8161 0000736  76.1831 283.9519 15.80900509  3299
Epoch: 2026-07-11T14:49Z
TLE epoch observation values (Epoch: 2026-07-11T14:49:12.815Z)
Latitude
-0.00005°
Longitude
76.98456°
Altitude
330.95 km
Speed
7.71 km/s
True Right ascension
15h 15m 15s
True Declination
0° 00' 00"
Sunlit
Object was in full shadow at epoch
Visualization orbit readout
Latitude
Unknown
Longitude
Unknown
Altitude
Unknown
Speed
Unknown
Apparent Right ascension
Unknown
Apparent Declination
Unknown
Sunlit
N/A
Visualization observer readout
Local Sidereal Time
21:45:30
Azimuth
Unknown
Elevation
Unknown
Doppler factor
Unknown
Orbital elements
Apogee altitude
325.266 km
Perigee altitude
324.279 km
Semi-major axis
6,702.91 km
Eccentricity
0.00007
Inclination
97.2834°
RAAN
228.8161°
Arg. of periapsis
76.1831°
True anomaly
283.94371°
Mean anomaly
283.9519°
Eccentric anomaly
283.94781°
Mean motion
3.95501 °/min
Orbital period
91.02 mins
BSTAR
0.0011659
Loading maneuver chart data...
Computing Atmospheric mass density...
Loading historical data...
Loading historical data...
Loading historical data...
Loading historical data...
Loading historical data...
Loading historical data...
Loading historical data...

Documentation

Showing up to 5 results
|